Flag Weather past 2 weeks in Saint-Pierre, Reunion (French)

Now
77 °F

Overcast.


Feels Like: 79 °F
Forecast: 72 / 79 °F
Wind: 23 mph from Southeast

Location: Saint Airport-Pierre

Current Time: Nov 1, 2014 at 12:59:44 PM

Latest Report: Nov 1, 2014 at 12:30 PM


Visibility: N/A

Pressure: 30.07 "Hg

Humidity: 61%

Dew point: 63 °F

Location of Saint-PierreLocation

Historic Weather in Saint-Pierre — Graph

°F

Saint-Pierre temperature yesterday

Maximum temperature yesterday: 81 °F (at 11:00 AM)
Minimum temperature yesterday: 68 °F (at 1:30 AM)
Average temperature yesterday: 74 °F

Past Weeks' High & Low Weather Summary

 TemperatureHumidityPressure
High86 °F (Oct 25, 2:00 PM)94% (Oct 27, 10:30 PM)30.12 "Hg (Oct 27, 10:30 PM)
Low66 °F (Oct 30, 2:30 AM)42% (Oct 30, 8:00 AM)29.92 "Hg (Oct 27, 3:00 PM)
Average76 °F68%30.03 "Hg
* Reported Oct 17 12:00 Noon — Nov 1 12:00 Noon, Saint-Pierre, Weather by CustomWeather, © 2014

Note: Actual official high and low records may vary slightly from our data, if they occured in-between our weather recording intervals... More about our weather records

Advertising

Saint-Pierre weather history for previous 24 hours

 ConditionsComfort  
Time TempWeatherWind HumidityBarometerVisibility
12:00 PM
Nov 1
77 °FPartly sunny.24 mph65%30.07 "HgN/A
11:30 AM81 °FWarm.25 mph54%30.09 "HgN/A
11:00 AM79 °FScattered clouds.25 mph58%30.09 "HgN/A
10:30 AM79 °FWarm.24 mph54%30.09 "HgN/A
10:00 AM79 °FPassing clouds.24 mph54%30.09 "HgN/A
9:30 AM79 °FPassing clouds.23 mph54%30.09 "HgN/A
9:00 AM79 °FPassing clouds.22 mph54%30.09 "HgN/A
8:30 AM77 °FScattered clouds.20 mph57%30.09 "HgN/A
8:00 AM75 °FPartly sunny.21 mph61%30.09 "HgN/A
7:30 AM73 °FPartly sunny.16 mph65%30.09 "HgN/A
7:00 AM73 °FOvercast.14 mph65%30.09 "HgN/A
6:30 AM72 °FPartly sunny.12 mph61%30.09 "HgN/A
6:00 AM70 °FMild.8 mph69%30.07 "HgN/A
5:30 AM70 °FPassing clouds.12 mph69%30.07 "HgN/A
5:00 AM70 °FPartly sunny.8 mph64%30.07 "HgN/A
4:30 AM72 °FPassing clouds.9 mph65%30.07 "HgN/A
4:00 AM70 °FPassing clouds.8 mph64%30.07 "HgN/A
3:30 AM68 °FPassing clouds.7 mph64%30.07 "HgN/A
3:00 AM68 °FOvercast.8 mph64%30.07 "HgN/A
2:30 AM70 °FPassing clouds.6 mph64%30.07 "HgN/A
2:00 AM68 °FPassing clouds.7 mph64%30.07 "HgN/A
1:30 AM68 °FPassing clouds.7 mph64%30.07 "HgN/A
1:00 AM70 °FPassing clouds.8 mph64%30.07 "HgN/A
12:30 AM72 °FPassing clouds.9 mph65%30.09 "HgN/A
12:00 AM70 °FPassing clouds.12 mph64%30.09 "HgN/A
11:30 PM
Oct 31
72 °FMild.13 mph65%30.09 "HgN/A
11:00 PM72 °FMild.14 mph65%30.09 "HgN/A
10:30 PM72 °FMild.18 mph65%30.09 "HgN/A
10:00 PM72 °FPassing clouds.14 mph65%30.12 "HgN/A
9:30 PM72 °FPassing clouds.15 mph65%30.12 "HgN/A
9:00 PM72 °FPassing clouds.13 mph69%30.09 "HgN/A
8:30 PM73 °FMild.16 mph61%30.09 "HgN/A
8:00 PM73 °FMild.16 mph65%30.09 "HgN/A
7:30 PM73 °FPassing clouds.18 mph65%30.09 "HgN/A
7:00 PM73 °FOvercast.21 mph65%30.09 "HgN/A
6:30 PM73 °FPassing clouds.23 mph65%30.07 "HgN/A
6:00 PM73 °FPassing clouds.22 mph65%30.07 "HgN/A
5:30 PM75 °FPassing clouds.24 mph61%30.04 "HgN/A
5:00 PM77 °FWarm.25 mph57%30.04 "HgN/A
4:30 PM77 °FWarm.26 mph57%30.04 "HgN/A
4:00 PM77 °FPassing clouds.26 mph57%30.04 "HgN/A
3:30 PM77 °FScattered clouds.25 mph57%30.04 "HgN/A
3:00 PM79 °FPassing clouds.25 mph51%30.04 "HgN/A
2:30 PM77 °FPassing clouds.23 mph51%30.04 "HgN/A
2:00 PM79 °FScattered clouds.25 mph51%30.04 "HgN/A
1:30 PM79 °FBroken clouds.26 mph51%30.07 "HgN/A
1:00 PM79 °FWarm.26 mph54%30.07 "HgN/A
12:30 PM81 °FWarm.26 mph54%30.07 "HgN/A
12:00 PM81 °FWarm.25 mph48%30.07 "HgN/A
Weather by CustomWeather, © 2014

See weather overviewHow to use our weather pages